Satellite-Ground Cal/Val Region Overpasses Predictions

Prediction of Satellite NPP Overpassing Cal/Val Region: PacNW

Region Location: (Latitude: 10.00, Longitude: 139.50) to (Latitude: 22.70, Longitude: 165.60).

Table of predicted overpasses for the next 14.0 days since TLE Epoch: 11/22/2019
Interval Starting Time Starting Location Ending Time Ending Location
1 11/23/2019 02:20:20 ( 10.02, 164.62) 11/23/2019 02:23:56 ( 22.70, 161.61)
2 11/23/2019 14:52:13 ( 22.68, 161.85) 11/23/2019 14:55:49 ( 10.00, 158.83)
3 11/24/2019 03:42:47 ( 10.02, 144.00) 11/24/2019 03:46:23 ( 22.70, 140.99)
4 11/24/2019 14:34:20 ( 18.58, 165.60) 11/24/2019 14:36:46 ( 10.01, 163.59)
5 11/24/2019 16:14:40 ( 22.68, 141.23) 11/24/2019 16:16:41 ( 15.58, 139.51)
6 11/25/2019 03:23:45 ( 10.01, 148.76) 11/25/2019 03:27:21 ( 22.69, 145.75)
7 11/25/2019 15:55:38 ( 22.68, 145.99) 11/25/2019 15:59:14 ( 10.00, 142.98)
8 11/26/2019 03:04:42 ( 10.01, 153.52) 11/26/2019 03:08:18 ( 22.69, 150.51)
9 11/26/2019 15:36:35 ( 22.69, 150.75) 11/26/2019 15:40:11 ( 10.01, 147.74)
10 11/27/2019 02:45:40 ( 10.00, 158.28) 11/27/2019 02:49:16 ( 22.68, 155.27)
11 11/27/2019 15:17:33 ( 22.69, 155.51) 11/27/2019 15:21:09 ( 10.01, 152.49)
12 11/28/2019 02:26:38 ( 10.06, 163.03) 11/28/2019 02:30:13 ( 22.68, 160.03)
13 11/28/2019 14:58:30 ( 22.70, 160.27) 11/28/2019 15:02:06 ( 10.02, 157.25)
14 11/29/2019 02:10:15 ( 19.39, 165.60) 11/29/2019 02:11:11 ( 22.68, 164.79)
15 11/29/2019 03:49:05 ( 10.00, 142.42) 11/29/2019 03:52:34 ( 22.28, 139.51)
16 11/29/2019 14:39:29 ( 22.64, 165.01) 11/29/2019 14:43:04 ( 10.02, 162.01)
17 11/29/2019 16:20:58 ( 22.69, 139.65) 11/29/2019 16:21:08 ( 22.11, 139.50)
18 11/30/2019 03:30:02 ( 10.00, 147.18) 11/30/2019 03:33:38 ( 22.68, 144.17)
19 11/30/2019 16:01:55 ( 22.70, 144.41) 11/30/2019 16:05:31 ( 10.02, 141.40)
20 12/01/2019 03:11:01 ( 10.06, 151.93) 12/01/2019 03:14:36 ( 22.68, 148.93)
21 12/01/2019 15:42:53 ( 22.70, 149.17) 12/01/2019 15:46:29 ( 10.02, 146.16)
22 12/02/2019 02:51:59 ( 10.05, 156.69) 12/02/2019 02:55:34 ( 22.68, 153.69)
23 12/02/2019 15:23:51 ( 22.64, 153.91) 12/02/2019 15:27:26 ( 10.02, 150.91)
24 12/03/2019 02:32:56 ( 10.05, 161.45) 12/03/2019 02:36:31 ( 22.67, 158.45)
25 12/03/2019 15:04:49 ( 22.65, 158.67) 12/03/2019 15:08:24 ( 10.02, 155.67)
26 12/04/2019 02:14:39 ( 12.69, 165.60) 12/04/2019 02:17:29 ( 22.67, 163.21)
27 12/04/2019 03:55:24 ( 10.06, 140.83) 12/04/2019 03:57:01 ( 15.76, 139.51)
28 12/04/2019 14:45:46 ( 22.65, 163.43) 12/04/2019 14:49:21 ( 10.03, 160.43)
29 12/05/2019 03:36:21 ( 10.06, 145.59) 12/05/2019 03:39:56 ( 22.68, 142.59)
30 12/05/2019 14:29:49 ( 11.79, 165.60) 12/05/2019 14:30:19 ( 10.03, 165.19)
31 12/05/2019 16:08:13 ( 22.70, 142.83) 12/05/2019 16:11:49 ( 10.02, 139.82)
32 12/06/2019 03:17:19 ( 10.06, 150.35) 12/06/2019 03:20:54 ( 22.68, 147.35)


NCC Satellite Cal/Val Overpasses Prediction Service
